Hourly Data Report for July 09, 2003

TORONTO CITY
ONTARIO

43°40'00.000" N
79°24'00.000" W
112.50 m
6158355
71508
XTO

Download Data

Hourly Data (July 2003)
Hourly Data Report for July 9, 2003
TIME
LST
Temp Definition
°C
Dew Point Definition
°C
Rel Hum Definition
%
Precip. Amount Definition
mm

Wind Dir Definition
10's deg

Wind Spd Definition
km/h
Visibility Definition
km
Stn Press Definition
kPa
Hmdx Definition


Wind Chill Definition


Weather Definition


00:00 21.9 13.2 58   LegendMM LegendMM LegendMM 99.95 25   LegendNANA
01:00 21.4 13.7 61   LegendMM LegendMM LegendMM 99.96 25   LegendNANA
02:00 21.6 13.1 58   LegendMM LegendMM LegendMM 99.91     LegendNANA
03:00 21.2 12.8 59   LegendMM LegendMM LegendMM 99.92     LegendNANA
04:00 20.5 13.1 63   LegendMM LegendMM LegendMM 99.91     LegendNANA
05:00 20.2 13.5 65   LegendMM LegendMM LegendMM 99.94     LegendNANA
06:00 20.3 13.0 63   LegendMM LegendMM LegendMM 99.96     LegendNANA
07:00 20.4 13.2 63   LegendMM LegendMM LegendMM 100.01     LegendNANA
08:00 20.9 13.3 62   LegendMM LegendMM LegendMM 100.01     LegendNANA
09:00 22.2 11.7 51   LegendMM LegendMM LegendMM 100.03     LegendNANA
10:00 24.2 12.9 49   LegendMM LegendMM LegendMM 100.05 27   LegendNANA
11:00 24.6 13.9 51   LegendMM LegendMM LegendMM 100.08 28   LegendNANA
12:00 24.7 14.5 53   LegendMM LegendMM LegendMM 100.10 28   LegendNANA
13:00 25.5 14.3 50   LegendMM LegendMM LegendMM 100.09 29   LegendNANA
14:00 25.2 13.7 49   LegendMM LegendMM LegendMM 100.05 28   LegendNANA
15:00 25.0 13.4 49   LegendMM LegendMM LegendMM 99.99 28   LegendNANA
16:00 24.5 14.6 54   LegendMM LegendMM LegendMM 100.04 28   LegendNANA
17:00 23.2 14.5 58   LegendMM LegendMM LegendMM 100.04 27   LegendNANA
18:00 22.5 14.1 59   LegendMM LegendMM LegendMM 100.03 26   LegendNANA
19:00 22.3 13.7 58   LegendMM LegendMM LegendMM 100.11 25   LegendNANA
20:00 21.6 13.3 59   LegendMM LegendMM LegendMM 100.13 25   LegendNANA
21:00 21.6 12.8 57   LegendMM LegendMM LegendMM 100.19     LegendNANA
22:00 21.1 12.9 59   LegendMM LegendMM LegendMM 100.15     LegendNANA
23:00 20.8 12.9 61   LegendMM LegendMM LegendMM 100.13     LegendNANA

Notes on Data Quality.

Legend

  • E = Estimated
  • M = Missing
  • NA = Not Available*
  • [empty] = Indicates an unobserved value
Date modified: